Regional Weather Roundup
Issued by NWS Northern Indiana

Home | Current Version | Previous Version | Graphics & Text | Print | Product List | Glossary On
Versions: 1 2 3 4 5 6 7 8 9 10 11 12 13 14 15 16 17 18 19 20 21 22 23 24 25 26 27 28 29 30 31 32 33 34 35 36 37 38 39 40 41 42 43 44 45 46 47 48 49 50
000
ASUS43 KIWX 221110
RWRIWX

KIWX WEATHER ROUNDUP
NATIONAL WEATHER SERVICE NORTHERN INDIANA
700 AM EDT FRI SEP 22 2017

NOTE: "FAIR" INDICATES FEW OR NO CLOUDS BELOW 12,000 FEET WITH NO
SIGNIFICANT WEATHER AND/OR OBSTRUCTIONS TO VISIBILITY.

* THESE STATIONS ARE NOT UNDER NWS QUALITY CONTROL. THEY ALSO MAY NOT
  REPORT WEATHER SUCH AS PRECIPITATION OR FOG.

INZ001>027-221200-
NORTHERN INDIANA

CITY           SKY/WX    TMP DP  RH WIND       PRES   REMARKS
GARY*          MOCLDY    70  66  88 S3        30.07R
VALPARAISO     FOG       67  67 100 CALM      30.09R VSB 3/4
MICHIGAN CITY* CLEAR     64  64 100 CALM      30.08R FOG
LAPORTE*       FOG       64  64  99 CALM      30.09S VSB 1/2
KNOX*            N/A     63  63 100 SE3       30.08S VSB 3/4
SOUTH BEND     CLEAR     70  69  97 CALM      30.09S
ELKHART*       CLEAR     68  66  94 CALM      30.09
GOSHEN         CLEAR     67  64  90 CALM      30.10R FOG
MONTICELLO*    CLEAR     67  65  96 CALM      30.08R FOG
LOGANSPORT*    CLEAR     66  64  94 CALM      30.10R FOG
WARSAW*        FOG       66  66 100 CALM      30.10R VSB 1
AUBURN*          N/A     66  64  94 CALM      30.11R FOG
FORT WAYNE     PTCLDY    67  65  93 CALM      30.11R
HUNTINGTON*    CLEAR     66  65  96 CALM      30.10R FOG
PERU/GRISSOM   PTCLDY    68  68  99 CALM      30.09R

$$
INZ028>050-221200-
CENTRAL INDIANA

CITY           SKY/WX    TMP DP  RH WIND       PRES   REMARKS
LAFAYETTE      CLEAR     67  67 100 CALM      30.08R
KOKOMO*        CLEAR     66  65  96 CALM      30.10S FOG
MUNCIE*        CLEAR     70  67  90 CALM      30.11R
INDIANAPOLIS   PTCLDY    72  69  90 SE5       30.10R

$$
MIZ043>046-050>051-056>058-064>065-071>073-077>080-221200-
SOUTHWEST LOWER MICHIGAN

CITY           SKY/WX    TMP DP  RH WIND       PRES   REMARKS
BATTLE CREEK   CLEAR     67  65  93 CALM      30.11S
BENTON HARBOR  CLEAR     70  66  87 CALM      30.07R
COLDWATER*     CLEAR     67  67 100 CALM      30.11S FOG
HILLSDALE*     FOG       64  63  94 CALM      30.12S VSB 1/2
HOLLAND        CLEAR     68  64  87 SE3       30.08R
GRAND RAPIDS   PTCLDY    66  64  93 CALM      30.09S
KALAMAZOO      CLEAR     66  63  90 CALM      30.10S FOG
STURGIS*       CLEAR     67  67  98 E3        30.10S FOG
THREE RIVERS*  FAIR      66  66  97 CALM      30.10S FOG

$$
OHZ001>008-015>018-024>025-221200-
NORTHWEST OHIO

CITY           SKY/WX    TMP DP  RH WIND       PRES   REMARKS
WAUSEON*       FAIR      66  66 100 N3        30.11S FOG
DEFIANCE       FOG       66  65  96 CALM      30.10S VSB 3/4
FINDLAY        CLEAR     67  63  87 CALM      30.10R FOG
TOLEDO EXPRESS CLEAR     69  69 100 CALM      30.10S FOG
TOLEDO METCALF CLEAR     68  66  93 CALM      30.11R FOG
LIMA           CLEAR     65  64  97 CALM      30.11R

$$
AND FOR LAKE MICHIGAN COASTAL AND OPEN LAKE BUOY OBSERVATIONS

STATION/POSITION TEMP    WIND        PRES    VSBY  WAVE
                 AIR SEA DIR/SP/G                  HT/PER
                 (F)     (DEG/KT/KT) (MB)    (MI)  (FT/S)
CALUMET HARBOR    75     200/  3/  4 1017.2R
MICHIGAN CITY     75     150/  8/ 10   N/A
BURNS HARBOR      74     180/  7/ 10 1018.3R
SAINT JOSEPH      71     140/  3/  6 1019.3
SOUTH LAKE BUOY   71 69  200/  6/  8 1017.6R         1
4 MI NW BRIDGMAN  72 70  180/  6/  6 1018.0          1
MICHIGAN CITY     71 70  150/  2/  4   N/A           0

$$
&&



USA.gov is the U.S. government's official web portal to all federal, state and local government web resources and services.